Location: Melque
(41.0517°N, 4.4694°W)
Time: 12:55:25
(UTC+00:00)

SKYMED 2 - Pass Details

Date: 23 March 2026
Orbit: 622 x 624 km, 97.9° (Epoch: 14 April)

Event Time Altitude Azimuth Distance (km) Brightness Sun altitude
Rises 05:21:30 0° 161° (SSE) 2,889 7.1 -11.1°
Reaches altitude 10° 05:23:41 10° 160° (SSE) 1,987 6.3 -10.7°
Maximum altitude 05:28:00 74° 76° (ENE) 651 3.8 -9.9°
Drops below altitude 10° 05:32:21 10° 351° (N) 2,002 6.2 -9.1°
Sets 05:34:33 0° 350° (N) 2,912 7.0 -8.7°
